Flag for U.S.A. Weather past 2 weeks in Memphis, Tennessee, U.S.A.

Now
51 °F

Overcast.


Feels Like: 46 °F
Forecast: 38 / 58 °F
Wind: 15 mph from South

Location: Memphis International Airport

Current Time: Feb 1, 2015 at 3:41:13 AM

Latest Report: Feb 1, 2015 at 2:54 AM


Visibility: 10 mi

Pressure: 29.98 "Hg

Humidity: 36%

Dew point: 25 °F

Location of MemphisLocation

Historic Weather in Memphis — Graph

°F

Memphis temperature yesterday

Maximum temperature yesterday: 50 °F (at 11:54 PM)
Minimum temperature yesterday: 38 °F (at 12:54 AM)
Average temperature yesterday: 43 °F

Past Weeks' High & Low Weather Summary

 TemperatureHumidityPressure
High65 °F (Jan 19, 2:54 PM)89% (Jan 24, 3:54 AM)30.52 "Hg (Jan 24, 3:54 AM)
Low30 °F (Jan 24, 4:54 AM)18% (Jan 18, 1:54 PM)29.68 "Hg (Jan 25, 1:54 PM)
Average47 °F56%30.12 "Hg
* Reported Jan 17 1:54 AM — Feb 1 1:54 AM, Memphis, Weather by CustomWeather, © 2014

Note: Actual official high and low records may vary slightly from our data, if they occured in-between our weather recording intervals... More about our weather records

Advertising

Memphis weather history for previous 24 hours

 ConditionsComfort  
Time TempWeatherWind HumidityBarometerVisibility
1:54 AM
Feb 1
51 °FOvercast.13 mph35%30.00 "Hg10 mi
12:54 AM51 °FPassing clouds.13 mph35%30.03 "Hg10 mi
11:54 PM
Jan 31
50 °FOvercast.12 mph35%30.04 "Hg10 mi
10:54 PM49 °FMostly cloudy.12 mph36%30.08 "Hg10 mi
9:54 PM47 °FOvercast.9 mph42%30.10 "Hg10 mi
8:54 PM46 °FMostly cloudy.5 mph44%30.14 "Hg10 mi
7:54 PM46 °FOvercast.8 mph44%30.15 "Hg10 mi
6:54 PM46 °FOvercast.7 mph44%30.16 "Hg10 mi
5:54 PM46 °FOvercast.7 mph44%30.19 "Hg10 mi
4:54 PM46 °FOvercast.8 mph44%30.20 "Hg10 mi
3:54 PM47 °FOvercast.7 mph39%30.22 "Hg10 mi
2:54 PM47 °FPartly sunny.7 mph37%30.24 "Hg10 mi
1:54 PM46 °FOvercast.6 mph40%30.26 "Hg10 mi
12:54 PM45 °FOvercast.5 mph42%30.29 "Hg10 mi
11:54 AM44 °FPartly sunny.7 mph43%30.32 "Hg10 mi
10:54 AM43 °FOvercast.5 mph45%30.36 "Hg10 mi
9:54 AM42 °FMore clouds than sun.8 mph45%30.37 "Hg10 mi
8:54 AM41 °FOvercast.5 mph47%30.38 "Hg10 mi
7:54 AM39 °FOvercast.6 mph50%30.37 "Hg10 mi
6:54 AM38 °FOvercast.3 mph51%30.37 "Hg10 mi
5:54 AM39 °FMostly cloudy.6 mph48%30.37 "Hg10 mi
4:54 AM39 °FMostly cloudy.5 mph48%30.36 "Hg10 mi
3:54 AM39 °FOvercast.5 mph50%30.36 "Hg10 mi
Weather by CustomWeather, © 2014

See weather overviewHow to use our weather pages